Location: Kershaw
(34.5481°N, 80.5823°W)
Time: 15:38:45
(UTC+00:00)

Tiros 1 despin weight - All Passes

Search period start: 03 October 2022 00:00
Search period end: 13 October 2022 00:00
Orbit: 590 x 638 km, 48.2° (Epoch: 02 October)

Date Brightness Start Highest point End Pass type
(mag) Time Alt. Az. Time Alt. Az. Time Alt. Az.
03 Oct - 00:52:17 10° NNW 00:55:04 16° N 00:57:53 10° NE visible
03 Oct - 02:33:20 10° NW 02:37:36 35° NNE 02:41:53 10° E visible
03 Oct - 04:14:45 10° WNW 04:19:09 44° SW 04:23:34 10° SSE night (unlit)
03 Oct - 19:59:21 10° SW 20:03:41 60° SE 20:08:08 10° ENE daylight
03 Oct - 21:41:32 10° W 21:45:24 28° NNW 21:49:20 10° NE daylight
03 Oct - 23:25:30 10° NW 23:28:04 15° N 23:30:39 10° NNE visible
04 Oct - 01:07:37 10° NNW 01:10:56 19° NNE 01:14:17 10° ENE visible
04 Oct - 02:48:33 10° NW 02:53:07 61° NE 02:57:43 10° ESE visible
04 Oct - 04:30:47 10° W 04:34:18 22° SW 04:37:51 10° S night (unlit)
04 Oct - 18:35:03 10° S 18:37:58 17° SE 18:40:56 10° E daylight
04 Oct - 20:14:37 10° WSW 20:19:02 69° NW 20:23:31 10° NE daylight
04 Oct - 21:57:50 10° WNW 22:01:08 20° NNW 22:04:30 10° NNE daylight
04 Oct - 23:41:28 10° NNW 23:43:59 14° N 23:46:32 10° NE visible
05 Oct - 01:22:47 10° NW 01:26:41 27° NNE 01:30:37 10° E visible
05 Oct - 03:03:53 10° WNW 03:08:29 70° SW 03:13:07 10° SE visible
05 Oct - 18:49:02 10° SSW 18:53:04 36° SE 18:57:10 10° ENE daylight
05 Oct - 20:30:23 10° W 20:34:31 38° NNW 20:38:44 10° NE daylight
05 Oct - 22:14:13 10° NW 22:16:59 16° N 22:19:45 10° NNE daylight
05 Oct - 23:56:58 10° NNW 23:59:53 16° NNE 00:02:49 10° NE visible
06 Oct - 01:37:55 10° NW 01:42:17 42° NNE 01:46:42 10° ESE visible
06 Oct - 03:19:32 10° WNW 03:23:43 34° SW 03:27:55 10° SSE night (unlit)
06 Oct - 17:27:16 10° SE 17:27:29 10° SE 17:27:43 10° SE daylight
06 Oct - 19:03:55 10° SW 19:08:19 77° SE 19:12:46 10° NE daylight
06 Oct - 20:46:29 10° WNW 20:50:09 24° NNW 20:53:52 10° NNE daylight
06 Oct - 22:30:27 10° NW 22:32:53 14° N 22:35:21 10° NNE daylight
07 Oct - 00:12:12 10° NNW 00:15:42 21° NNE 00:19:14 10° ENE visible
07 Oct - 01:53:09 10° NW 01:57:45 76° NE 02:02:23 10° ESE visible
07 Oct - 03:35:53 10° W 03:38:49 17° SW 03:41:46 10° S night (unlit)
07 Oct - 17:39:04 10° S 17:42:30 22° SE 17:45:57 10° E daylight
07 Oct - 19:19:22 10° WSW 19:23:41 55° NNW 19:28:05 10° NE daylight
07 Oct - 21:02:50 10° WNW 21:05:54 18° NNW 21:09:01 10° NNE daylight
07 Oct - 22:46:13 10° NNW 22:48:47 15° N 22:51:23 10° NE daylight
08 Oct - 00:27:20 10° NW 00:31:24 31° NNE 00:35:29 10° E visible
08 Oct - 02:08:34 10° WNW 02:13:03 55° SW 02:17:34 10° SE visible
08 Oct - 17:53:25 10° SSW 17:57:38 47° SE 18:01:54 10° ENE daylight
08 Oct - 19:35:14 10° W 19:39:12 32° NNW 19:43:14 10° NE daylight
08 Oct - 21:19:11 10° NW 21:21:46 15° N 21:24:21 10° NNE daylight
08 Oct - 23:01:35 10° NNW 23:04:40 18° NNE 23:07:44 10° ENE daylight
09 Oct - 00:42:28 10° NW 00:46:55 51° NNE 00:51:25 10° ESE visible
09 Oct - 02:24:22 10° WNW 02:28:13 27° SW 02:32:06 10° S visible
09 Oct - 16:29:47 10° SSE 16:31:57 14° SE 16:34:08 10° E daylight
09 Oct - 18:08:30 10° SW 18:12:54 84° NW 18:17:21 10° NE daylight
09 Oct - 19:51:26 10° WNW 19:54:52 21° NNW 19:58:21 10° NNE daylight
09 Oct - 21:35:16 10° NNW 21:37:40 14° N 21:40:04 10° NNE daylight
09 Oct - 23:16:44 10° NNW 23:20:24 23° NNE 23:24:07 10° ENE visible
10 Oct - 00:57:44 10° NW 01:02:19 86° SW 01:06:56 10° SE visible
10 Oct - 02:41:16 10° WSW 02:43:16 13° SW 02:45:16 10° SSW visible
10 Oct - 16:43:13 10° SSW 16:47:00 29° SE 16:50:49 10° ENE daylight
10 Oct - 18:24:05 10° WSW 18:28:18 44° NNW 18:32:35 10° NE daylight
10 Oct - 20:07:48 10° NW 20:10:39 16° NNW 20:13:31 10° NNE daylight
10 Oct - 21:50:52 10° NNW 21:53:32 15° N 21:56:14 10° NE daylight
10 Oct - 23:31:51 10° NW 23:36:01 35° NNE 23:40:16 10° E visible
11 Oct - 01:13:14 10° WNW 01:17:33 42° SW 01:21:55 10° SSE visible
11 Oct - 16:57:50 10° SW 17:02:09 61° SE 17:06:31 10° ENE daylight
11 Oct - 18:40:05 10° W 18:43:52 27° NNW 18:47:42 10° NE daylight
11 Oct - 20:24:06 10° NW 20:26:30 14° N 20:28:56 10° NNE daylight
11 Oct - 22:06:07 10° NNW 22:09:21 19° NNE 22:12:37 10° ENE daylight
11 Oct - 23:46:59 10° NW 23:51:30 62° NE 23:56:03 10° ESE visible
12 Oct - 01:29:15 10° W 01:32:40 21° SW 01:36:06 10° S visible
12 Oct - 15:33:27 10° S 15:36:24 18° SE 15:39:21 10° E daylight
12 Oct - 17:13:06 10° WSW 17:17:27 67° NW 17:21:52 10° NE daylight
12 Oct - 18:56:21 10° WNW 18:59:33 19° NNW 19:02:47 10° NNE daylight
12 Oct - 20:40:00 10° NNW 20:42:23 14° N 20:44:48 10° NE daylight
12 Oct - 22:21:13 10° NW 22:25:03 26° NNE 22:28:55 10° E daylight
